FW2738 Weather Reports


time (UTC)temp
C
wind
direction
speed
KPH
gust
KPH
rain 1hr
cm
rain 24hr
cm
rain mn
cm
humidity
%
barometer
mb
20260509090030 20 147 8.0 24.1 0.00 0.30 0.00 91 1007.1
20260509084529 20 134 16.1 19.3 0.00 0.30 0.00 91 1007.3
20260509083026 20 86 8.0 17.7 0.00 0.30 0.00 91 1007.6
20260509081521 20 90 9.7 16.1 0.00 0.30 0.00 90 1008.2
20260509080024 20 84 9.7 14.5 0.00 0.30 0.00 89 1008.6
20260509074515 20 109 9.7 14.5 0.00 0.30 0.00 89 1008.8
20260509073034 20 119 4.8 12.9 0.00 0.30 0.00 88 1009.1
20260509071513 20 113 0.0 3.2 0.00 0.30 0.00 88 1009.2
20260509070016 20 71 0.0 6.4 0.00 0.30 0.00 88 1009.4
20260509064512 20 15 3.2 8.0 0.00 0.30 0.00 88 1009.7
20260509063011 20 29 4.8 8.0 0.00 0.30 0.00 88 1009.7
20260509061509 20 59 6.4 14.5 0.00 0.30 0.00 88 1009.3
20260509060016 20 90 8.0 12.9 0.00 0.30 0.00 87 1009.0
20260509054513 20 138 0.0 6.4 0.00 0.30 0.00 88 1009.1
20260509053012 20 196 0.0 8.0 0.00 0.30 0.00 88 1009.3
20260509051505 20 134 4.8 11.3 0.00 0.30 0.00 88 1009.2
20260509050006 20 214 4.8 8.0 0.00 0.30 0.30 87 1009.3
20260509044503 20 179 6.4 11.3 0.00 0.30 0.30 86 1009.0
20260509043002 20 173 12.9 19.3 0.00 0.30 0.30 86 1008.7
20260509041502 20 181 6.4 9.7 0.00 0.30 0.30 86 1008.7
20260509040002 20 162 3.2 6.4 0.00 0.30 0.30 85 1008.2
20260509034501 20 174 9.7 14.5 0.00 0.30 0.30 83 1008.5
20260509033100 21 165 3.2 16.1 0.00 0.30 0.30 81 1008.8
20260509031600 21 140 9.7 17.7 0.00 0.30 0.30 79 1008.4
20260509030100 21 160 8.0 11.3 0.00 0.30 0.30 81 1008.5
20260509024559 21 128 0.0 0.0 0.00 0.30 0.30 80 1009.3
20260509023058 21 128 1.6 4.8 0.00 0.30 0.30 79 1008.9
20260509021558 21 88 0.0 0.0 0.00 0.30 0.30 78 1008.4
20260509020056 21 107 0.0 4.8 0.00 0.30 0.30 78 1008.3
20260509014556 22 131 4.8 11.3 0.00 0.30 0.30 78 1007.9
20260509013102 22 155 4.8 12.9 0.00 0.30 0.30 76 1007.7
20260509011553 22 155 9.7 14.5 0.00 0.30 0.30 76 1007.5
20260509010056 22 182 8.0 12.9 0.00 0.30 0.30 76 1007.5
20260509004611 22 215 8.0 14.5 0.00 0.30 0.30 74 1007.3
20260509003053 23 161 11.3 19.3 0.00 0.30 0.30 70 1007.2
20260509001551 23 128 12.9 22.5 0.00 0.30 0.30 69 1007.0
20260509000050 24 141 12.9 24.1 0.00 0.30 0.30 68 1006.8
20260508234549 24 175 11.3 20.9 0.00 0.30 0.30 67 1007.0
20260508233056 25 148 14.5 22.5 0.00 0.30 0.30 66 1007.2
20260508231546 25 163 12.9 19.3 0.00 0.30 0.30 65 1007.3
20260508230056 25 142 12.9 20.9 0.00 0.30 0.30 64 1007.5
20260508224545 26 149 11.3 24.1 0.00 0.30 0.30 64 1007.4
20260508223044 26 195 9.7 14.5 0.00 0.30 0.30 65 1007.3
20260508221544 25 147 12.9 24.1 0.00 0.30 0.30 64 1007.3
20260508220050 26 132 11.3 19.3 0.00 0.30 0.30 63 1007.4
20260508214546 26 153 16.1 29.0 0.00 0.30 0.30 63 1007.4
20260508213036 26 158 14.5 24.1 0.00 0.30 0.30 61 1007.8
20260508211535 25 175 12.9 25.7 0.00 0.30 0.30 62 1008.2
20260508210036 26 156 12.9 22.5 0.00 0.30 0.30 59 1008.3
20260508204531 25 153 17.7 27.4 0.00 0.30 0.30 62 1008.4
20260508203028 25 136 14.5 30.6 0.00 0.30 0.30 62 1008.7
20260508201527 25 162 16.1 22.5 0.00 0.30 0.30 61 1009.1
20260508200037 24 180 11.3 19.3 0.00 0.30 0.30 63 1009.2
20260508194522 24 144 9.7 19.3 0.00 0.30 0.30 62 1009.5
20260508193022 25 134 9.7 24.1 0.00 0.30 0.30 60 1009.5
20260508191524 25 132 11.3 24.1 0.00 0.30 0.30 61 1009.6
20260508190021 25 120 12.9 20.9 0.00 0.30 0.30 61 1009.6
20260508184526 23 84 12.9 17.7 0.00 0.30 0.30 68 1009.8
20260508183013 22 122 11.3 17.7 0.00 0.30 0.30 75 1010.1
20260508181516 22 127 9.7 16.1 0.00 0.30 0.30 75 1010.5
20260508180006 22 96 8.0 12.9 0.00 0.30 0.30 76 1010.9
20260508174505 21 134 1.6 8.0 0.00 0.30 0.30 77 1011.5
20260508173100 21 190 3.2 11.3 0.00 0.30 0.30 80 1011.7
20260508171558 20 118 6.4 12.9 0.00 0.30 0.30 81 1012.1
20260508170058 19 160 1.6 14.5 0.00 0.30 0.30 81 1012.6
20260508164602 19 127 4.8 9.7 0.00 0.30 0.30 82 1012.6
20260508163051 18 119 6.4 14.5 0.03 0.30 0.30 82 1012.8
20260508161553 18 159 8.0 16.1 0.03 0.30 0.30 81 1013.1
20260508160050 18 167 8.0 11.3 0.03 0.30 0.30 82 1013.2
20260508154550 18 149 6.4 16.1 0.03 0.30 0.30 84 1012.8
20260508153050 18 142 6.4 17.7 0.00 0.28 0.28 83 1013.1
20260508151556 18 147 8.0 14.5 0.00 0.28 0.28 85 1013.2
20260508150053 17 134 4.8 16.1 0.00 0.28 0.28 89 1013.1
20260508144601 16 154 9.7 16.1 0.00 0.28 0.28 91 1013.2
20260508143040 16 129 4.8 11.3 0.00 0.28 0.28 90 1013.5
20260508141545 16 127 3.2 8.0 0.00 0.28 0.28 90 1013.5
20260508140046 15 301 0.0 11.3 0.00 0.28 0.28 90 1014.1
20260508134542 15 132 6.4 14.5 0.03 0.28 0.28 90 1013.7
20260508133104 16 234 8.0 12.9 0.03 0.28 0.28 90 1014.5
20260508131536 15 149 11.3 19.3 0.03 0.28 0.28 92 1013.5
20260508130036 15 144 11.3 16.1 0.03 0.28 0.28 93 1013.8
20260508124534 15 117 1.6 9.7 0.00 0.25 0.25 92 1014.0
20260508123131 15 169 1.6 8.0 0.00 0.25 0.25 93 1014.3
20260508121535 14 139 3.2 11.3 0.00 0.25 0.25 92 1013.9
20260508120028 14 226 0.0 6.4 0.00 0.25 0.25 92 1014.3
20260508114527 14 125 8.0 14.5 0.03 0.25 0.25 91 1013.6
20260508113027 14 153 8.0 16.1 0.08 0.25 0.25 91 1013.5
20260508111526 14 189 4.8 8.0 0.25 0.25 0.25 92 1014.0
20260508110043 14 225 0.0 6.4 0.25 0.25 0.25 92 1013.7
20260508104525 13 230 3.2 14.5 0.23 0.23 0.23 93 1014.1
20260508103023 13 133 1.6 6.4 0.18 0.18 0.18 93 1012.9
20260508101523 13 111 0.0 1.6 0.00 0.00 0.00 92 1012.5
20260508100023 13 111 3.2 6.4 0.00 0.00 0.00 92 1012.6
20260508094519 13 49 1.6 6.4 0.00 0.00 0.00 92 1013.1
20260508093019 13 141 1.6 3.2 0.00 0.00 0.00 91 1013.2
20260508091517 14 141 0.0 8.0 0.00 0.00 0.00 90 1013.5